Location: Presov
(49.0000°N, 21.2500°E)
Time: 05:42:39
(UTC+02:00)

Transit 2A Rocket - Pass Details

Date: 23 April 2021
Orbit: 594 x 909 km, 66.7° (Epoch: 07 May)

Event Time Altitude Azimuth Distance (km) Brightness Sun altitude
Rises 01:08:26 0° 310° (NW) 2,906 8.4 -28.0°
Reaches altitude 10° 01:11:23 10° 289° (WNW) 2,036 7.3 -27.9°
Enters shadow 01:11:23 10° 289° (WNW) 2,033 7.3 -27.9°
Maximum altitude 01:14:11 16° 251° (WSW) 1,698 - -27.8°
Drops below altitude 10° 01:17:07 10° 213° (SSW) 2,129 - -27.7°
Sets 01:20:18 0° 192° (SSW) 3,108 - -27.6°
